| time (UTC) | temp F | wind direction | speed knots | gust knots | rain 1hr in | rain 24hr in | rain mn in | humidity % | barometer mb |
| 20260507064501 | 70 | 110 | 0.0 | 0.0 | 0.00 | 0.00 | 0.00 | 87 | 1013.9 |
| 20260507064102 | 70 | 110 | 0.0 | 0.0 | 0.00 | 0.00 | 0.00 | 86 | 1014.0 |
| 20260507063558 | 70 | 110 | 0.0 | 0.0 | 0.00 | 0.00 | 0.00 | 86 | 1014.1 |
| 20260507063501 | 70 | 110 | 0.0 | 0.0 | 0.00 | 0.00 | 0.00 | 86 | 1014.1 |
| 20260507063100 | 71 | 110 | 0.0 | 0.0 | 0.00 | 0.00 | 0.00 | 86 | 1014.1 |
| 20260507062555 | 71 | 110 | 0.0 | 0.0 | 0.00 | 0.00 | 0.00 | 86 | 1014.2 |
| 20260507062054 | 71 | 111 | 0.0 | 0.0 | 0.00 | 0.00 | 0.00 | 86 | 1014.3 |
| 20260507062001 | 71 | 111 | 0.0 | 0.9 | 0.00 | 0.00 | 0.00 | 86 | 1014.3 |
| 20260507061552 | 71 | 108 | 0.0 | 0.9 | 0.00 | 0.00 | 0.00 | 86 | 1014.5 |
| 20260507061050 | 71 | 108 | 0.0 | 0.0 | 0.00 | 0.00 | 0.00 | 85 | 1014.5 |
| 20260507060549 | 71 | 108 | 0.0 | 0.0 | 0.00 | 0.00 | 0.00 | 85 | 1014.8 |
| 20260507060056 | 71 | 108 | 0.0 | 0.0 | 0.00 | 0.00 | 0.00 | 85 | 1014.8 |
| 20260507055547 | 72 | 108 | 0.0 | 0.0 | 0.00 | 0.00 | 0.00 | 85 | 1014.9 |
| 20260507055046 | 72 | 108 | 0.0 | 0.9 | 0.00 | 0.00 | 0.00 | 85 | 1014.9 |
| 20260507054550 | 72 | 86 | 0.0 | 0.9 | 0.00 | 0.00 | 0.00 | 84 | 1014.8 |
| 20260507054518 | 72 | 86 | 0.0 | 0.0 | 0.00 | 0.00 | 0.00 | 84 | 1014.8 |
| 20260507054019 | 72 | 86 | 0.0 | 0.9 | 0.00 | 0.00 | 0.00 | 84 | 1014.9 |
| 20260507053519 | 72 | 86 | 0.0 | 0.9 | 0.00 | 0.00 | 0.00 | 84 | 1014.9 |
| 20260507053016 | 72 | 292 | 0.0 | 0.9 | 0.00 | 0.00 | 0.00 | 83 | 1015.0 |
| 20260507052515 | 72 | 147 | 0.0 | 0.0 | 0.00 | 0.00 | 0.00 | 83 | 1015.1 |
| 20260507052018 | 72 | 146 | 0.0 | 0.9 | 0.00 | 0.00 | 0.00 | 83 | 1015.1 |
| 20260507051515 | 73 | 130 | 0.0 | 0.9 | 0.00 | 0.00 | 0.00 | 83 | 1015.1 |
| 20260507051009 | 73 | 130 | 0.0 | 0.9 | 0.00 | 0.00 | 0.00 | 82 | 1015.1 |
| 20260507050508 | 73 | 338 | 0.0 | 0.9 | 0.00 | 0.00 | 0.00 | 82 | 1015.1 |
| 20260507050113 | 73 | 330 | 0.0 | 0.9 | 0.00 | 0.00 | 0.00 | 82 | 1015.1 |
| 20260507045508 | 73 | 108 | 0.0 | 0.9 | 0.00 | 0.00 | 0.00 | 82 | 1014.8 |
| 20260507045004 | 73 | 84 | 0.0 | 1.7 | 0.00 | 0.00 | 0.00 | 82 | 1014.8 |
| 20260507044515 | 73 | 85 | 0.0 | 1.7 | 0.00 | 0.00 | 0.00 | 82 | 1014.9 |
| 20260507044001 | 73 | 60 | 0.0 | 0.9 | 0.00 | 0.00 | 0.00 | 81 | 1015.0 |
| 20260507043604 | 73 | 140 | 0.0 | 0.9 | 0.00 | 0.00 | 0.00 | 81 | 1015.0 |
| 20260507043104 | 73 | 140 | 0.0 | 0.9 | 0.00 | 0.00 | 0.00 | 81 | 1015.1 |
| 20260507043002 | 73 | 208 | 0.0 | 0.9 | 0.00 | 0.00 | 0.00 | 81 | 1015.1 |
| 20260507042558 | 73 | 116 | 0.0 | 0.9 | 0.00 | 0.00 | 0.00 | 80 | 1015.1 |
| 20260507042105 | 73 | 116 | 0.0 | 0.9 | 0.00 | 0.00 | 0.00 | 80 | 1015.2 |
| 20260507041559 | 73 | 116 | 0.0 | 0.0 | 0.00 | 0.00 | 0.00 | 80 | 1015.3 |
| 20260507041057 | 73 | 116 | 0.0 | 0.0 | 0.00 | 0.00 | 0.00 | 79 | 1015.2 |
| 20260507041002 | 73 | 116 | 0.0 | 0.0 | 0.00 | 0.00 | 0.00 | 79 | 1015.3 |
| 20260507040553 | 73 | 116 | 0.0 | 0.0 | 0.00 | 0.00 | 0.00 | 79 | 1015.3 |
| 20260507040052 | 74 | 116 | 0.0 | 0.0 | 0.00 | 0.00 | 0.00 | 79 | 1015.3 |
| 20260507035553 | 74 | 116 | 0.0 | 0.0 | 0.00 | 0.00 | 0.00 | 79 | 1015.2 |
| 20260507035055 | 74 | 116 | 0.0 | 2.6 | 0.00 | 0.00 | 0.00 | 78 | 1015.3 |
| 20260507034555 | 74 | 116 | 0.0 | 2.6 | 0.00 | 0.00 | 0.00 | 78 | 1015.2 |
| 20260507034053 | 74 | 322 | 0.0 | 0.0 | 0.00 | 0.00 | 0.00 | 78 | 1015.1 |
| 20260507033550 | 74 | 322 | 0.0 | 0.0 | 0.00 | 0.00 | 0.00 | 77 | 1015.1 |
| 20260507033051 | 74 | 322 | 0.0 | 0.0 | 0.00 | 0.00 | 0.00 | 77 | 1015.0 |
| 20260507032550 | 75 | 322 | 0.0 | 0.9 | 0.00 | 0.00 | 0.00 | 77 | 1015.0 |
| 20260507032046 | 75 | 166 | 0.0 | 2.6 | 0.00 | 0.00 | 0.00 | 77 | 1015.0 |
| 20260507031044 | 75 | 120 | 0.0 | 0.9 | 0.00 | 0.00 | 0.00 | 77 | 1015.1 |
| 20260507030548 | 74 | 168 | 0.0 | 0.0 | 0.00 | 0.00 | 0.00 | 76 | 1015.0 |
| 20260507030042 | 75 | 169 | 0.0 | 0.9 | 0.00 | 0.00 | 0.00 | 76 | 1014.9 |
| 20260507025554 | 75 | 169 | 0.0 | 0.9 | 0.00 | 0.00 | 0.00 | 76 | 1014.9 |
| 20260507025044 | 75 | 274 | 0.0 | 3.5 | 0.00 | 0.00 | 0.00 | 75 | 1015.0 |
| 20260507024547 | 75 | 85 | 0.0 | 3.5 | 0.00 | 0.00 | 0.00 | 75 | 1015.1 |
| 20260507024038 | 75 | 215 | 0.0 | 1.7 | 0.00 | 0.00 | 0.00 | 75 | 1015.1 |
| 20260507023540 | 75 | 107 | 0.0 | 1.7 | 0.00 | 0.00 | 0.00 | 75 | 1015.0 |
| 20260507023036 | 75 | 136 | 0.0 | 2.6 | 0.00 | 0.00 | 0.00 | 75 | 1015.1 |
| 20260507022536 | 76 | 125 | 0.0 | 2.6 | 0.00 | 0.00 | 0.00 | 75 | 1015.0 |
| 20260507022140 | 76 | 98 | 0.0 | 1.7 | 0.00 | 0.00 | 0.00 | 74 | 1015.0 |
| 20260507021533 | 76 | 154 | 0.0 | 1.7 | 0.00 | 0.00 | 0.00 | 74 | 1015.2 |
| 20260507021032 | 76 | 139 | 0.0 | 2.6 | 0.00 | 0.00 | 0.00 | 73 | 1015.0 |
| 20260507020531 | 76 | 56 | 0.0 | 2.6 | 0.00 | 0.00 | 0.00 | 74 | 1015.0 |
| 20260507020042 | 76 | 249 | 0.0 | 2.6 | 0.00 | 0.00 | 0.00 | 74 | 1015.0 |
| 20260507015534 | 76 | 243 | 0.0 | 2.6 | 0.00 | 0.00 | 0.00 | 73 | 1014.6 |
| 20260507015028 | 76 | 271 | 0.0 | 0.9 | 0.00 | 0.00 | 0.00 | 74 | 1014.6 |
| 20260507014529 | 77 | 241 | 0.0 | 0.9 | 0.00 | 0.00 | 0.00 | 73 | 1014.8 |
| 20260507014030 | 77 | 209 | 0.0 | 0.9 | 0.00 | 0.00 | 0.00 | 73 | 1014.8 |
| 20260507013530 | 77 | 15 | 0.0 | 3.5 | 0.00 | 0.00 | 0.00 | 74 | 1014.7 |
| 20260507013025 | 77 | 112 | 0.0 | 3.5 | 0.00 | 0.00 | 0.00 | 73 | 1014.7 |
| 20260507012528 | 77 | 79 | 0.0 | 1.7 | 0.00 | 0.00 | 0.00 | 73 | 1014.8 |
| 20260507012024 | 77 | 281 | 0.0 | 3.5 | 0.00 | 0.00 | 0.00 | 73 | 1015.0 |
| 20260507011524 | 77 | 281 | 0.0 | 3.5 | 0.00 | 0.00 | 0.00 | 73 | 1015.1 |
| 20260507011025 | 77 | 131 | 0.0 | 2.6 | 0.00 | 0.00 | 0.00 | 74 | 1015.0 |
| 20260507010523 | 77 | 92 | 0.0 | 2.6 | 0.00 | 0.00 | 0.00 | 75 | 1014.9 |
| 20260507010028 | 77 | 195 | 0.0 | 2.6 | 0.00 | 0.00 | 0.00 | 74 | 1014.9 |
| 20260507005522 | 77 | 90 | 0.0 | 2.6 | 0.00 | 0.00 | 0.00 | 74 | 1015.0 |
| 20260507005020 | 77 | 49 | 0.0 | 0.9 | 0.00 | 0.00 | 0.00 | 75 | 1014.9 |
| 20260507004521 | 78 | 107 | 0.0 | 0.9 | 0.00 | 0.00 | 0.00 | 75 | 1014.7 |
| 20260507004023 | 78 | 341 | 0.0 | 0.9 | 0.00 | 0.00 | 0.00 | 74 | 1014.8 |
| 20260507003518 | 78 | 96 | 0.0 | 0.9 | 0.00 | 0.00 | 0.00 | 74 | 1014.6 |
| 20260507003026 | 79 | 95 | 0.0 | 0.9 | 0.00 | 0.00 | 0.00 | 74 | 1014.5 |
| 20260507002617 | 79 | 95 | 0.0 | 0.9 | 0.00 | 0.00 | 0.00 | 73 | 1014.5 |
| 20260507002018 | 79 | 280 | 0.0 | 2.6 | 0.00 | 0.00 | 0.00 | 72 | 1014.4 |
| 20260507001524 | 79 | 64 | 0.0 | 2.6 | 0.00 | 0.00 | 0.00 | 72 | 1014.1 |
| 20260507001015 | 80 | 58 | 0.0 | 3.5 | 0.00 | 0.00 | 0.00 | 71 | 1014.1 |
| 20260507000515 | 80 | 123 | 0.0 | 3.5 | 0.00 | 0.00 | 0.00 | 71 | 1014.0 |
| 20260507000014 | 80 | 225 | 0.0 | 1.7 | 0.00 | 0.00 | 0.00 | 71 | 1014.0 |
| 20260506235520 | 81 | 96 | 0.0 | 5.2 | 0.00 | 0.00 | 0.00 | 71 | 1014.0 |
| 20260506234512 | 81 | 148 | 0.0 | 3.5 | 0.00 | 0.00 | 0.00 | 71 | 1013.9 |
| 20260506234008 | 82 | 148 | 0.0 | 4.3 | 0.00 | 0.00 | 0.00 | 70 | 1013.9 |
| 20260506233512 | 82 | 249 | 0.0 | 4.3 | 0.00 | 0.00 | 0.00 | 70 | 1013.7 |
| 20260506233009 | 83 | 343 | 0.0 | 3.5 | 0.00 | 0.00 | 0.00 | 70 | 1013.7 |
| 20260506232509 | 83 | 110 | 0.9 | 3.5 | 0.00 | 0.00 | 0.00 | 69 | 1013.9 |
| 20260506232006 | 83 | 147 | 0.0 | 3.5 | 0.00 | 0.00 | 0.00 | 69 | 1013.8 |
| 20260506231511 | 84 | 162 | 0.9 | 5.2 | 0.00 | 0.00 | 0.00 | 68 | 1013.8 |
| 20260506231006 | 85 | 147 | 1.7 | 5.2 | 0.00 | 0.00 | 0.00 | 66 | 1013.8 |
| 20260506230505 | 86 | 7 | 1.7 | 4.3 | 0.00 | 0.00 | 0.00 | 66 | 1013.9 |
| 20260506230003 | 87 | 347 | 0.9 | 2.6 | 0.00 | 0.00 | 0.00 | 65 | 1013.8 |
| 20260506225502 | 87 | 114 | 0.0 | 2.6 | 0.00 | 0.00 | 0.00 | 66 | 1014.0 |
| 20260506225010 | 87 | 98 | 0.0 | 2.6 | 0.00 | 0.00 | 0.00 | 67 | 1013.9 |
| 20260506224502 | 87 | 80 | 0.0 | 7.0 | 0.00 | 0.00 | 0.00 | 67 | 1013.9 |
| 20260506224006 | 87 | 173 | 0.0 | 4.3 | 0.00 | 0.00 | 0.00 | 66 | 1013.9 |
| 20260506223501 | 87 | 219 | 0.0 | 3.5 | 0.00 | 0.00 | 0.00 | 66 | 1013.8 |
| 20260506223001 | 88 | 173 | 0.0 | 5.2 | 0.00 | 0.00 | 0.00 | 66 | 1013.7 |
| 20260506222559 | 88 | 103 | 0.9 | 5.2 | 0.00 | 0.00 | 0.00 | 65 | 1013.7 |
| 20260506222102 | 88 | 89 | 0.9 | 5.2 | 0.00 | 0.00 | 0.00 | 64 | 1013.7 |
| 20260506221559 | 89 | 204 | 1.7 | 5.2 | 0.00 | 0.00 | 0.00 | 63 | 1013.7 |
| 20260506221104 | 90 | 221 | 0.9 | 5.2 | 0.00 | 0.00 | 0.00 | 62 | 1013.8 |
| 20260506220557 | 91 | 118 | 0.9 | 5.2 | 0.00 | 0.00 | 0.00 | 59 | 1013.7 |
| 20260506220059 | 91 | 327 | 0.0 | 4.3 | 0.00 | 0.00 | 0.00 | 51 | 1013.7 |
| 20260506215558 | 92 | 321 | 0.0 | 3.5 | 0.00 | 0.00 | 0.00 | 50 | 1013.6 |
| 20260506215059 | 93 | 227 | 0.0 | 1.7 | 0.00 | 0.00 | 0.00 | 51 | 1013.6 |
| 20260506214609 | 92 | 299 | 0.0 | 3.5 | 0.00 | 0.00 | 0.00 | 51 | 1013.6 |
| 20260506214049 | 92 | 141 | 0.0 | 3.5 | 0.00 | 0.00 | 0.00 | 51 | 1013.6 |
| 20260506213548 | 93 | 201 | 0.0 | 2.6 | 0.00 | 0.00 | 0.00 | 50 | 1013.8 |
| 20260506213047 | 93 | 92 | 0.9 | 2.6 | 0.00 | 0.00 | 0.00 | 49 | 1013.9 |
| 20260506212544 | 93 | 240 | 0.0 | 3.5 | 0.00 | 0.00 | 0.00 | 51 | 1013.9 |
| 20260506212043 | 93 | 233 | 0.0 | 3.5 | 0.00 | 0.00 | 0.00 | 52 | 1013.7 |
| 20260506211039 | 93 | 293 | 0.0 | 1.7 | 0.00 | 0.00 | 0.00 | 47 | 1014.0 |
| 20260506210539 | 93 | 96 | 0.0 | 4.3 | 0.00 | 0.00 | 0.00 | 49 | 1014.0 |
| 20260506210041 | 92 | 224 | 1.7 | 4.3 | 0.00 | 0.00 | 0.00 | 51 | 1014.0 |
| 20260506205538 | 92 | 235 | 0.0 | 2.6 | 0.00 | 0.00 | 0.00 | 49 | 1014.1 |
| 20260506205037 | 93 | 339 | 0.9 | 3.5 | 0.00 | 0.00 | 0.00 | 51 | 1014.1 |
| 20260506204536 | 93 | 205 | 0.9 | 3.5 | 0.00 | 0.00 | 0.00 | 51 | 1014.1 |
| 20260506204042 | 93 | 335 | 0.0 | 3.5 | 0.00 | 0.00 | 0.00 | 50 | 1014.1 |
| 20260506203535 | 94 | 248 | 0.0 | 2.6 | 0.00 | 0.00 | 0.00 | 50 | 1014.1 |
| 20260506203035 | 95 | 272 | 0.0 | 1.7 | 0.00 | 0.00 | 0.00 | 49 | 1014.1 |
| 20260506202531 | 94 | 266 | 0.0 | 2.6 | 0.00 | 0.00 | 0.00 | 51 | 1014.1 |
| 20260506202029 | 94 | 308 | 0.0 | 2.6 | 0.00 | 0.00 | 0.00 | 51 | 1014.3 |
| 20260506201531 | 93 | 231 | 0.9 | 3.5 | 0.00 | 0.00 | 0.00 | 51 | 1014.3 |
| 20260506201030 | 93 | 248 | 1.7 | 3.5 | 0.00 | 0.00 | 0.00 | 50 | 1014.3 |
| 20260506200527 | 93 | 148 | 0.9 | 3.5 | 0.00 | 0.00 | 0.00 | 51 | 1014.5 |
| 20260506200027 | 94 | 288 | 0.9 | 2.6 | 0.00 | 0.00 | 0.00 | 50 | 1014.6 |
| 20260506195525 | 94 | 311 | 0.0 | 4.3 | 0.00 | 0.00 | 0.00 | 52 | 1014.6 |
| 20260506195027 | 94 | 214 | 1.7 | 4.3 | 0.00 | 0.00 | 0.00 | 50 | 1014.7 |
| 20260506194527 | 95 | 255 | 0.9 | 2.6 | 0.00 | 0.00 | 0.00 | 51 | 1014.8 |
| 20260506194044 | 94 | 155 | 0.0 | 2.6 | 0.00 | 0.00 | 0.00 | 50 | 1014.8 |
| 20260506193523 | 94 | 146 | 0.0 | 3.5 | 0.00 | 0.00 | 0.00 | 50 | 1014.9 |
| 20260506193019 | 93 | 156 | 0.9 | 5.2 | 0.00 | 0.00 | 0.00 | 51 | 1015.0 |
| 20260506192518 | 93 | 247 | 0.9 | 3.5 | 0.00 | 0.00 | 0.00 | 52 | 1015.0 |
| 20260506192019 | 93 | 238 | 0.9 | 3.5 | 0.00 | 0.00 | 0.00 | 52 | 1015.1 |
| 20260506191515 | 92 | 229 | 0.9 | 3.5 | 0.00 | 0.00 | 0.00 | 53 | 1015.1 |
| 20260506191015 | 92 | 321 | 0.9 | 3.5 | 0.00 | 0.00 | 0.00 | 52 | 1015.2 |
| 20260506190512 | 92 | 319 | 0.0 | 4.3 | 0.00 | 0.00 | 0.00 | 52 | 1015.3 |
| 20260506190111 | 92 | 241 | 1.7 | 4.3 | 0.00 | 0.00 | 0.00 | 55 | 1015.3 |
| 20260506185508 | 92 | 124 | 0.9 | 7.0 | 0.00 | 0.00 | 0.00 | 52 | 1015.3 |
| 20260506185011 | 92 | 265 | 2.6 | 7.0 | 0.00 | 0.00 | 0.00 | 54 | 1015.3 |
| 20260506184507 | 91 | 331 | 0.9 | 3.5 | 0.00 | 0.00 | 0.00 | 55 | 1015.4 |
| 20260506184006 | 91 | 181 | 0.9 | 5.2 | 0.00 | 0.00 | 0.00 | 56 | 1015.5 |
| 20260506183503 | 91 | 332 | 0.9 | 3.5 | 0.00 | 0.00 | 0.00 | 54 | 1015.5 |
| 20260506183001 | 91 | 345 | 0.0 | 2.6 | 0.00 | 0.00 | 0.00 | 55 | 1015.5 |
| 20260506182600 | 90 | 253 | 0.9 | 5.2 | 0.00 | 0.00 | 0.00 | 55 | 1015.7 |
| 20260506182502 | 90 | 233 | 0.9 | 5.2 | 0.00 | 0.00 | 0.00 | 56 | 1015.7 |
| 20260506182100 | 90 | 224 | 1.7 | 5.2 | 0.00 | 0.00 | 0.00 | 57 | 1015.9 |
| 20260506181602 | 90 | 298 | 1.7 | 5.2 | 0.00 | 0.00 | 0.00 | 56 | 1015.9 |
| 20260506181501 | 90 | 312 | 1.7 | 6.1 | 0.00 | 0.00 | 0.00 | 56 | 1015.9 |
| 20260506181103 | 90 | 252 | 2.6 | 6.1 | 0.00 | 0.00 | 0.00 | 57 | 1015.8 |
| 20260506181003 | 90 | 241 | 1.7 | 6.1 | 0.00 | 0.00 | 0.00 | 59 | 1015.7 |
| 20260506180601 | 90 | 239 | 0.9 | 3.5 | 0.00 | 0.00 | 0.00 | 56 | 1016.0 |
| 20260506180101 | 90 | 234 | 0.9 | 3.5 | 0.00 | 0.00 | 0.00 | 58 | 1016.0 |
| 20260506175058 | 90 | 319 | 0.9 | 5.2 | 0.00 | 0.00 | 0.00 | 59 | 1016.0 |
| 20260506174558 | 89 | 311 | 0.9 | 5.2 | 0.00 | 0.00 | 0.00 | 61 | 1016.0 |
| 20260506174059 | 89 | 298 | 1.7 | 5.2 | 0.00 | 0.00 | 0.00 | 59 | 1016.2 |
| 20260506173551 | 90 | 74 | 0.0 | 2.6 | 0.00 | 0.00 | 0.00 | 57 | 1016.3 |
| 20260506173051 | 90 | 283 | 0.0 | 2.6 | 0.00 | 0.00 | 0.00 | 58 | 1016.5 |
| 20260506172045 | 89 | 73 | 0.0 | 3.5 | 0.00 | 0.00 | 0.00 | 60 | 1016.5 |
| 20260506171553 | 88 | 265 | 0.0 | 3.5 | 0.00 | 0.00 | 0.00 | 61 | 1016.6 |
| 20260506171040 | 87 | 255 | 0.0 | 3.5 | 0.00 | 0.00 | 0.00 | 63 | 1016.6 |
| 20260506170540 | 87 | 86 | 0.9 | 7.0 | 0.00 | 0.00 | 0.00 | 61 | 1016.6 |
| 20260506170040 | 87 | 148 | 0.9 | 4.3 | 0.00 | 0.00 | 0.00 | 62 | 1016.6 |
| 20260506165544 | 87 | 291 | 0.9 | 7.0 | 0.00 | 0.00 | 0.00 | 63 | 1016.9 |
| 20260506165036 | 88 | 252 | 1.7 | 7.0 | 0.00 | 0.00 | 0.00 | 62 | 1016.9 |
| 20260506164536 | 87 | 256 | 0.9 | 5.2 | 0.00 | 0.00 | 0.00 | 63 | 1017.0 |
| 20260506164034 | 88 | 297 | 0.9 | 3.5 | 0.00 | 0.00 | 0.00 | 63 | 1016.9 |
| 20260506163533 | 87 | 227 | 0.9 | 4.3 | 0.00 | 0.00 | 0.00 | 64 | 1017.0 |
| 20260506163041 | 87 | 262 | 0.9 | 5.2 | 0.00 | 0.00 | 0.00 | 63 | 1017.2 |
| 20260506162539 | 87 | 226 | 0.9 | 5.2 | 0.00 | 0.00 | 0.00 | 65 | 1017.2 |
| 20260506162033 | 86 | 108 | 1.7 | 7.0 | 0.00 | 0.00 | 0.00 | 64 | 1017.2 |
| 20260506161529 | 86 | 93 | 0.9 | 7.0 | 0.00 | 0.00 | 0.00 | 62 | 1017.1 |
| 20260506161031 | 86 | 207 | 0.9 | 4.3 | 0.00 | 0.00 | 0.00 | 67 | 1017.1 |
| 20260506160526 | 86 | 245 | 0.0 | 4.3 | 0.00 | 0.00 | 0.00 | 65 | 1017.2 |
| 20260506160026 | 86 | 96 | 0.9 | 7.0 | 0.00 | 0.00 | 0.00 | 67 | 1017.2 |
| 20260506155524 | 85 | 289 | 0.9 | 7.0 | 0.00 | 0.00 | 0.00 | 67 | 1017.3 |
| 20260506155030 | 84 | 217 | 1.7 | 6.1 | 0.00 | 0.00 | 0.00 | 68 | 1017.3 |
| 20260506154524 | 85 | 255 | 1.7 | 6.1 | 0.00 | 0.00 | 0.00 | 67 | 1017.3 |
| 20260506154018 | 84 | 55 | 0.0 | 5.2 | 0.00 | 0.00 | 0.00 | 70 | 1017.3 |
| 20260506153521 | 83 | 342 | 0.0 | 5.2 | 0.00 | 0.00 | 0.00 | 69 | 1017.2 |
| 20260506153120 | 83 | 186 | 0.9 | 6.1 | 0.00 | 0.00 | 0.00 | 68 | 1017.2 |
| 20260506152514 | 83 | 239 | 0.0 | 6.1 | 0.00 | 0.00 | 0.00 | 71 | 1017.2 |
| 20260506152012 | 83 | 202 | 0.9 | 3.5 | 0.00 | 0.00 | 0.00 | 69 | 1017.2 |
| 20260506151014 | 82 | 78 | 1.7 | 5.2 | 0.00 | 0.00 | 0.00 | 71 | 1017.2 |
| 20260506150507 | 82 | 267 | 0.9 | 6.1 | 0.00 | 0.00 | 0.00 | 74 | 1017.1 |
| 20260506150006 | 81 | 300 | 1.7 | 5.2 | 0.00 | 0.00 | 0.00 | 72 | 1017.1 |
| 20260506145550 | 81 | 248 | 1.7 | 5.2 | 0.00 | 0.00 | 0.00 | 72 | 1017.1 |
| 20260506145158 | 81 | 248 | 1.7 | 6.1 | 0.00 | 0.00 | 0.00 | 74 | 1017.0 |
| 20260506144559 | 80 | 326 | 1.7 | 5.2 | 0.00 | 0.00 | 0.00 | 73 | 1016.9 |
| 20260506144045 | 80 | 237 | 0.9 | 5.2 | 0.00 | 0.00 | 0.00 | 76 | 1016.9 |
| 20260506143543 | 80 | 150 | 0.9 | 5.2 | 0.00 | 0.00 | 0.00 | 77 | 1017.0 |
| 20260506143044 | 79 | 316 | 2.6 | 5.2 | 0.00 | 0.00 | 0.00 | 74 | 1016.9 |
| 20260506142540 | 80 | 265 | 1.7 | 5.2 | 0.00 | 0.00 | 0.00 | 75 | 1016.9 |
| 20260506142038 | 79 | 243 | 1.7 | 7.8 | 0.00 | 0.00 | 0.00 | 79 | 1016.9 |
| 20260506141538 | 79 | 203 | 2.6 | 7.8 | 0.00 | 0.00 | 0.00 | 77 | 1016.9 |
| 20260506141035 | 78 | 311 | 1.7 | 5.2 | 0.00 | 0.00 | 0.00 | 78 | 1017.0 |
| 20260506140534 | 77 | 238 | 0.9 | 5.2 | 0.00 | 0.00 | 0.00 | 79 | 1016.9 |
| 20260506140032 | 77 | 261 | 0.9 | 5.2 | 0.00 | 0.00 | 0.00 | 80 | 1016.9 |
| 20260506135530 | 77 | 271 | 0.9 | 4.3 | 0.00 | 0.00 | 0.00 | 82 | 1016.9 |
| 20260506135029 | 76 | 60 | 0.9 | 5.2 | 0.00 | 0.00 | 0.00 | 81 | 1017.0 |
| 20260506134527 | 76 | 323 | 1.7 | 6.1 | 0.00 | 0.00 | 0.00 | 80 | 1017.0 |
| 20260506134026 | 75 | 339 | 0.9 | 6.1 | 0.00 | 0.00 | 0.00 | 81 | 1017.0 |
| 20260506133524 | 75 | 275 | 0.9 | 7.0 | 0.00 | 0.00 | 0.00 | 83 | 1017.0 |
| 20260506133039 | 75 | 274 | 0.9 | 6.1 | 0.00 | 0.00 | 0.00 | 82 | 1016.9 |
| 20260506132517 | 74 | 258 | 1.7 | 7.0 | 0.00 | 0.00 | 0.00 | 83 | 1017.1 |
| 20260506132017 | 73 | 312 | 1.7 | 6.1 | 0.00 | 0.00 | 0.00 | 84 | 1017.1 |
| 20260506131517 | 73 | 245 | 0.9 | 3.5 | 0.00 | 0.00 | 0.00 | 85 | 1017.0 |
| 20260506131012 | 72 | 250 | 0.9 | 5.2 | 0.00 | 0.00 | 0.00 | 86 | 1016.8 |
| 20260506130510 | 71 | 291 | 0.0 | 2.6 | 0.00 | 0.00 | 0.00 | 88 | 1016.8 |
| 20260506130012 | 70 | 298 | 0.0 | 2.6 | 0.00 | 0.00 | 0.00 | 88 | 1016.8 |
| 20260506125507 | 69 | 250 | 0.0 | 0.9 | 0.00 | 0.00 | 0.00 | 90 | 1016.8 |
| 20260506125018 | 68 | 49 | 0.0 | 0.9 | 0.00 | 0.00 | 0.00 | 90 | 1016.7 |
| 20260506124559 | 68 | 115 | 0.0 | 3.5 | 0.00 | 0.00 | 0.00 | 91 | 1016.9 |
| 20260506124057 | 67 | 199 | 0.0 | 3.5 | 0.00 | 0.00 | 0.00 | 92 | 1016.7 |
| 20260506123557 | 66 | 248 | 0.0 | 0.9 | 0.00 | 0.00 | 0.00 | 92 | 1016.7 |
| 20260506123050 | 65 | 244 | 0.0 | 0.9 | 0.00 | 0.00 | 0.00 | 93 | 1016.6 |
| 20260506122546 | 64 | 161 | 0.0 | 0.0 | 0.00 | 0.00 | 0.00 | 93 | 1016.7 |
| 20260506121540 | 63 | 160 | 0.0 | 0.0 | 0.00 | 0.00 | 0.00 | 93 | 1016.4 |
| 20260506121141 | 63 | 162 | 0.0 | 0.0 | 0.00 | 0.00 | 0.00 | 93 | 1016.4 |
| 20260506120544 | 62 | 162 | 0.0 | 0.0 | 0.00 | 0.00 | 0.00 | 93 | 1016.3 |
| 20260506120047 | 62 | 162 | 0.0 | 0.0 | 0.00 | 0.00 | 0.00 | 93 | 1016.5 |
| 20260506115538 | 62 | 162 | 0.0 | 0.0 | 0.00 | 0.00 | 0.00 | 93 | 1016.2 |
| 20260506115033 | 61 | 162 | 0.0 | 0.0 | 0.00 | 0.00 | 0.00 | 93 | 1016.3 |
| 20260506114532 | 61 | 162 | 0.0 | 0.0 | 0.00 | 0.00 | 0.00 | 93 | 1016.2 |
| 20260506114036 | 61 | 162 | 0.0 | 0.0 | 0.00 | 0.00 | 0.00 | 93 | 1016.3 |
| 20260506113531 | 60 | 162 | 0.0 | 0.0 | 0.00 | 0.00 | 0.00 | 93 | 1016.2 |
| 20260506113031 | 60 | 162 | 0.0 | 0.0 | 0.00 | 0.00 | 0.00 | 93 | 1016.1 |
| 20260506112530 | 60 | 162 | 0.0 | 0.0 | 0.00 | 0.00 | 0.00 | 93 | 1016.1 |
| 20260506112029 | 60 | 155 | 0.0 | 0.0 | 0.00 | 0.00 | 0.00 | 93 | 1016.2 |
| 20260506111529 | 59 | 155 | 0.0 | 0.0 | 0.00 | 0.00 | 0.00 | 93 | 1016.2 |
| 20260506111028 | 59 | 155 | 0.0 | 0.0 | 0.00 | 0.00 | 0.00 | 93 | 1016.1 |
| 20260506110525 | 59 | 155 | 0.0 | 0.0 | 0.00 | 0.00 | 0.00 | 93 | 1016.1 |
| 20260506110030 | 59 | 155 | 0.0 | 0.0 | 0.00 | 0.00 | 0.00 | 93 | 1016.0 |
| 20260506105523 | 59 | 155 | 0.0 | 0.0 | 0.00 | 0.00 | 0.00 | 92 | 1015.9 |
| 20260506105021 | 59 | 155 | 0.0 | 0.0 | 0.00 | 0.00 | 0.00 | 92 | 1015.7 |
| 20260506104521 | 59 | 155 | 0.0 | 0.0 | 0.00 | 0.00 | 0.00 | 92 | 1015.7 |
| 20260506104023 | 59 | 155 | 0.0 | 0.0 | 0.00 | 0.00 | 0.00 | 92 | 1015.5 |
| 20260506103510 | 59 | 155 | 0.0 | 0.0 | 0.00 | 0.00 | 0.00 | 92 | 1015.5 |
| 20260506103010 | 59 | 155 | 0.0 | 0.0 | 0.00 | 0.00 | 0.00 | 92 | 1015.3 |
| 20260506102510 | 59 | 155 | 0.0 | 0.0 | 0.00 | 0.00 | 0.00 | 92 | 1015.3 |
| 20260506102014 | 59 | 155 | 0.0 | 0.0 | 0.00 | 0.00 | 0.00 | 92 | 1015.4 |
| 20260506101509 | 59 | 155 | 0.0 | 0.0 | 0.00 | 0.00 | 0.00 | 92 | 1015.5 |
| 20260506101010 | 59 | 155 | 0.0 | 0.0 | 0.00 | 0.00 | 0.00 | 92 | 1015.6 |
| 20260506100507 | 59 | 155 | 0.0 | 0.0 | 0.00 | 0.00 | 0.00 | 92 | 1015.5 |
| 20260506100010 | 59 | 155 | 0.0 | 0.0 | 0.00 | 0.00 | 0.00 | 92 | 1015.7 |
| 20260506095506 | 59 | 155 | 0.0 | 0.0 | 0.00 | 0.00 | 0.00 | 92 | 1015.5 |
| 20260506095006 | 59 | 155 | 0.0 | 0.0 | 0.00 | 0.00 | 0.00 | 92 | 1015.7 |
| 20260506094506 | 59 | 155 | 0.0 | 0.0 | 0.00 | 0.00 | 0.00 | 92 | 1015.7 |
| 20260506094002 | 59 | 155 | 0.0 | 0.0 | 0.00 | 0.00 | 0.00 | 92 | 1015.7 |
| 20260506093505 | 59 | 155 | 0.0 | 0.0 | 0.00 | 0.00 | 0.00 | 92 | 1015.5 |
| 20260506093000 | 59 | 155 | 0.0 | 0.0 | 0.00 | 0.00 | 0.00 | 92 | 1015.3 |
| 20260506092600 | 59 | 155 | 0.0 | 0.0 | 0.00 | 0.00 | 0.00 | 92 | 1015.3 |
| 20260506092504 | 59 | 155 | 0.0 | 0.0 | 0.00 | 0.00 | 0.00 | 92 | 1015.2 |
| 20260506092059 | 59 | 155 | 0.0 | 0.0 | 0.00 | 0.00 | 0.00 | 92 | 1015.3 |
| 20260506092001 | 59 | 155 | 0.0 | 0.0 | 0.00 | 0.00 | 0.00 | 92 | 1015.3 |
| 20260506091606 | 59 | 155 | 0.0 | 0.0 | 0.00 | 0.00 | 0.00 | 91 | 1015.1 |
| 20260506091059 | 60 | 155 | 0.0 | 0.0 | 0.00 | 0.00 | 0.00 | 92 | 1015.2 |
| 20260506090513 | 60 | 155 | 0.0 | 0.0 | 0.00 | 0.00 | 0.00 | 92 | 1015.3 |
| 20260506090013 | 59 | 155 | 0.0 | 0.0 | 0.00 | 0.00 | 0.00 | 91 | 1015.3 |
| 20260506085618 | 59 | 155 | 0.0 | 0.0 | 0.00 | 0.00 | 0.00 | 91 | 1015.4 |
| 20260506085009 | 60 | 155 | 0.0 | 0.0 | 0.00 | 0.00 | 0.00 | 91 | 1015.3 |
| 20260506084510 | 60 | 155 | 0.0 | 0.0 | 0.00 | 0.00 | 0.00 | 91 | 1015.2 |
| 20260506084010 | 60 | 155 | 0.0 | 0.0 | 0.00 | 0.00 | 0.00 | 91 | 1015.3 |
| 20260506083606 | 60 | 155 | 0.0 | 0.0 | 0.00 | 0.00 | 0.00 | 91 | 1015.2 |
| 20260506083009 | 60 | 155 | 0.0 | 0.0 | 0.00 | 0.00 | 0.00 | 91 | 1015.2 |
| 20260506082505 | 60 | 155 | 0.0 | 0.0 | 0.00 | 0.00 | 0.00 | 91 | 1015.3 |
| 20260506082004 | 60 | 155 | 0.0 | 0.0 | 0.00 | 0.00 | 0.00 | 91 | 1015.3 |
| 20260506081601 | 60 | 155 | 0.0 | 0.0 | 0.00 | 0.00 | 0.00 | 91 | 1015.2 |
| 20260506081106 | 60 | 155 | 0.0 | 0.0 | 0.00 | 0.00 | 0.00 | 91 | 1015.3 |
| 20260506080602 | 59 | 155 | 0.0 | 0.0 | 0.00 | 0.00 | 0.00 | 90 | 1015.3 |
| 20260506073052 | 60 | 155 | 0.0 | 0.0 | 0.00 | 0.00 | 0.00 | 90 | 1015.1 |
| 20260506072552 | 60 | 155 | 0.0 | 0.0 | 0.00 | 0.00 | 0.00 | 90 | 1015.2 |
| 20260506072052 | 60 | 155 | 0.0 | 0.0 | 0.00 | 0.00 | 0.00 | 90 | 1015.3 |
| 20260506071548 | 60 | 155 | 0.0 | 0.0 | 0.00 | 0.00 | 0.00 | 90 | 1015.3 |
| 20260506071049 | 60 | 155 | 0.0 | 0.0 | 0.00 | 0.00 | 0.00 | 90 | 1015.3 |
| 20260506070549 | 60 | 155 | 0.0 | 0.0 | 0.00 | 0.00 | 0.00 | 90 | 1015.4 |
| 20260506070150 | 60 | 155 | 0.0 | 0.0 | 0.00 | 0.00 | 0.00 | 90 | 1015.3 |